FW0267 Weather Reports


time (UTC)temp
F
wind
direction
speed
knots
gust
knots
rain 1hr
in
rain 24hr
in
rain mn
in
humidity
%
barometer
mb
20260901020040 0 121 0.0 1.7 0.00 0.00 0.00 1019.3
20260901015534 0 126 0.0 1.7 0.00 0.00 0.00 1019.2
20260901015034 0 132 0.0 1.7 0.00 0.00 0.00 1019.1
20260901014537 0 121 0.0 0.9 0.00 0.00 0.00 1019.1
20260901014034 0 95 0.0 1.7 0.00 0.00 0.00 1019.0
20260901013534 0 111 0.0 1.7 0.00 0.00 0.00 1018.9
20260901013039 0 157 0.0 1.7 0.00 0.00 0.00 1018.9
20260901012532 0 157 0.0 1.7 0.00 0.00 0.00 1019.1
20260901012033 0 132 0.9 2.6 0.00 0.00 0.00 1018.9
20260901011535 0 117 0.0 2.6 0.00 0.00 0.00 1018.9
20260901011033 0 126 0.9 1.7 0.00 0.00 0.00 1018.8
20260901010533 0 118 0.0 1.7 0.00 0.00 0.00 1018.7
20260901010036 0 97 0.0 1.7 0.00 0.00 0.00 1018.7
20260901005532 0 107 0.0 1.7 0.00 0.00 0.00 1018.7
20260901005032 0 109 0.0 1.7 0.00 0.00 0.00 1018.9
20260901004532 0 109 0.0 1.7 0.00 0.00 0.00 1018.9
20260901004032 0 126 0.9 1.7 0.00 0.00 0.00 1018.9
20260901003532 0 125 0.9 1.7 0.00 0.00 0.00 1018.8
20260901003036 0 120 0.0 0.9 0.00 0.00 0.00 1018.8
20260901002532 0 126 0.0 1.7 0.00 0.00 0.00 1018.8
20260901002031 0 120 0.0 1.7 0.00 0.00 0.00 1018.8
20260901001541 0 117 0.0 0.9 0.00 0.00 0.00 1018.7
20260901001030 0 136 0.0 1.7 0.00 0.00 0.00 1018.6
20260901000531 0 105 0.0 2.6 0.00 0.00 0.00 1018.5
20260901000031 0 99 0.0 2.6 0.00 0.00 0.00 1018.4
20260831235534 0 126 0.0 0.9 0.00 0.00 0.00 1018.4
20260831235030 0 108 0.0 0.9 0.00 0.00 0.00 1018.3
20260831234531 0 111 0.0 0.9 0.00 0.00 0.00 1018.3
20260831234030 0 112 0.0 1.7 0.00 0.00 0.00 1018.4
20260831233530 0 82 0.0 1.7 0.00 0.00 0.00 1018.2
20260831233030 0 101 0.0 0.9 0.00 0.00 0.00 1018.3
20260831232530 0 111 0.0 0.9 0.00 0.00 0.00 1018.3
20260831232029 0 109 0.0 0.9 0.00 0.00 0.00 1018.3
20260831231529 0 113 0.0 0.9 0.00 0.00 0.00 1018.2
20260831231029 0 113 0.0 0.9 0.00 0.00 0.00 1018.2
20260831230533 0 102 0.0 0.9 0.00 0.00 0.00 1018.1
20260831230029 0 94 0.0 0.9 0.00 0.00 0.00 1018.0
20260831225533 0 109 0.0 0.9 0.00 0.00 0.00 1018.0
20260831225029 0 45 0.0 0.9 0.00 0.00 0.00 1017.9
20260831224528 0 88 0.0 0.9 0.00 0.00 0.00 1017.9
20260831224028 0 110 0.0 1.7 0.00 0.00 0.00 1017.9
20260831223529 0 133 0.0 1.7 0.00 0.00 0.00 1018.0
20260831223027 0 45 0.0 1.7 0.00 0.00 0.00 1017.9
20260831222527 0 92 0.0 1.7 0.00 0.00 0.00 1018.1
20260831222026 0 115 0.0 0.9 0.00 0.00 0.00 1018.1
20260831221534 0 109 0.0 1.7 0.00 0.00 0.00 1018.2
20260831221026 0 55 0.9 2.6 0.00 0.00 0.00 1018.1
20260831220526 0 53 0.0 2.6 0.00 0.00 0.00 1018.0
20260831220026 0 17 0.0 1.7 0.00 0.00 0.00 1018.1
20260831215524 0 360 0.0 1.7 0.00 0.00 0.00 1017.9
20260831215026 0 130 0.0 1.7 0.00 0.00 0.00 1017.9
20260831214522 0 101 0.0 1.7 0.00 0.00 0.00 1017.9
20260831214020 0 31 0.0 2.6 0.00 0.00 0.00 1017.9
20260831213519 0 117 0.0 2.6 0.00 0.00 0.00 1017.9
20260831213019 0 13 0.9 1.7 0.00 0.00 0.00 1017.9
20260831212519 0 95 0.0 1.7 0.00 0.00 0.00 1018.0
20260831212019 0 147 0.0 1.7 0.00 0.00 0.00 1018.1
20260831211518 0 139 0.0 1.7 0.00 0.00 0.00 1018.1
20260831211015 0 139 0.0 1.7 0.00 0.00 0.00 1018.0
20260831210514 0 113 0.0 1.7 0.00 0.00 0.00 1018.1
20260831210013 0 74 0.0 1.7 0.00 0.00 0.00 1017.9
20260831205511 0 65 0.0 1.7 0.00 0.00 0.00 1018.1
20260831205009 0 50 0.0 1.7 0.00 0.00 0.00 1018.0
20260831204510 0 14 0.0 1.7 0.00 0.00 0.00 1017.9
20260831204007 0 360 0.0 2.6 0.00 0.00 0.00 1018.1
20260831203505 0 107 0.9 2.6 0.00 0.00 0.00 1018.0
20260831203007 0 342 0.0 1.7 0.00 0.00 0.00 1018.1
20260831202502 0 169 0.0 1.7 0.00 0.00 0.00 1018.0
20260831202002 0 22 0.0 1.7 0.00 0.00 0.00 1018.0
20260831201600 0 114 0.0 1.7 0.00 0.00 0.00 1018.2
20260831201058 0 190 0.9 1.7 0.00 0.00 0.00 1018.1
20260831200557 0 91 0.0 1.7 0.00 0.00 0.00 1018.1
20260831200058 0 132 0.0 2.6 0.00 0.00 0.00 1018.2
20260831195553 0 36 0.9 2.6 0.00 0.00 0.00 1018.2
20260831195052 0 24 0.9 1.7 0.00 0.00 0.00 1018.2
20260831194612 0 132 0.9 2.6 0.00 0.00 0.00 1018.2
20260831194050 0 355 0.9 2.6 0.00 0.00 0.00 1018.3
20260831193547 0 153 0.9 2.6 0.00 0.00 0.00 1018.2
20260831193052 0 115 0.0 1.7 0.00 0.00 0.00 1018.3
20260831192545 0 111 0.0 2.6 0.00 0.00 0.00 1018.3
20260831192044 0 351 0.0 2.6 0.00 0.00 0.00 1018.4
20260831191542 0 5 0.0 1.7 0.00 0.00 0.00 1018.4
20260831191044 0 186 0.0 2.6 0.00 0.00 0.00 1018.4
20260831190541 0 36 0.9 2.6 0.00 0.00 0.00 1018.4
20260831190104 0 101 0.9 2.6 0.00 0.00 0.00 1018.5
20260831185538 0 24 0.9 2.6 0.00 0.00 0.00 1018.6
20260831185036 0 94 0.0 1.7 0.00 0.00 0.00 1018.6
20260831184534 0 342 0.9 2.6 0.00 0.00 0.00 1018.7
20260831184035 0 44 0.9 2.6 0.00 0.00 0.00 1018.6
20260831183530 0 169 0.0 1.7 0.00 0.00 0.00 1018.7
20260831183031 0 5 0.0 1.7 0.00 0.00 0.00 1018.7
20260831182528 0 355 0.9 1.7 0.00 0.00 0.00 1018.8
20260831182027 0 110 0.0 2.6 0.00 0.00 0.00 1018.9
20260831181527 0 332 0.9 3.5 0.00 0.00 0.00 1018.9
20260831181023 0 69 1.7 3.5 0.00 0.00 0.00 1019.0
20260831180521 0 78 0.0 2.6 0.00 0.00 0.00 1019.1
20260831180021 0 100 0.0 2.6 0.00 0.00 0.00 1019.1
20260831175518 0 76 0.9 1.7 0.00 0.00 0.00 1019.2
20260831175018 0 360 0.9 2.6 0.00 0.00 0.00 1019.3
20260831174516 0 71 0.9 2.6 0.00 0.00 0.00 1019.3
20260831174015 0 53 0.0 1.7 0.00 0.00 0.00 1019.3
20260831173516 0 26 0.9 2.6 0.00 0.00 0.00 1019.4
20260831173012 0 94 0.0 1.7 0.00 0.00 0.00 1019.4
20260831172510 0 111 0.0 1.7 0.00 0.00 0.00 1019.4
20260831172009 0 143 0.0 2.6 0.00 0.00 0.00 1019.4
20260831171508 0 123 0.9 2.6 0.00 0.00 0.00 1019.4
20260831171006 0 129 0.0 2.6 0.00 0.00 0.00 1019.4
20260831170505 0 109 0.9 2.6 0.00 0.00 0.00 1019.4
20260831170006 0 342 0.0 2.6 0.00 0.00 0.00 1019.4
20260831165504 0 36 0.9 2.6 0.00 0.00 0.00 1019.4
20260831165059 0 78 0.0 1.7 0.00 0.00 0.00 1019.6
20260831164559 0 360 0.0 2.6 0.00 0.00 0.00 1019.6
20260831164100 0 123 0.9 2.6 0.00 0.00 0.00 1019.6
20260831163555 0 355 0.0 1.7 0.00 0.00 0.00 1019.8
20260831163054 0 119 0.0 2.6 0.00 0.00 0.00 1019.7
20260831162556 0 120 0.0 2.6 0.00 0.00 0.00 1019.8
20260831162051 0 157 0.0 1.7 0.00 0.00 0.00 1019.9
20260831161550 0 67 0.0 1.7 0.00 0.00 0.00 1019.8
20260831161048 0 119 0.9 1.7 0.00 0.00 0.00 1019.9
20260831160546 0 146 0.0 1.7 0.00 0.00 0.00 1019.9
20260831160045 0 144 0.0 1.7 0.00 0.00 0.00 1019.8
20260831155545 0 126 0.0 1.7 0.00 0.00 0.00 1019.9
20260831155042 0 126 0.0 1.7 0.00 0.00 0.00 1020.1
20260831154544 0 118 0.0 1.7 0.00 0.00 0.00 1020.1
20260831154039 0 114 0.0 1.7 0.00 0.00 0.00 1020.2
20260831153541 0 114 0.0 2.6 0.00 0.00 0.00 1020.1
20260831153045 0 113 0.0 2.6 0.00 0.00 0.00 1020.1
20260831152535 0 140 0.0 0.9 0.00 0.00 0.00 1020.1
20260831152033 0 123 0.0 1.7 0.00 0.00 0.00 1020.1
20260831151540 0 123 0.0 1.7 0.00 0.00 0.00 1020.1
20260831151030 0 144 0.0 1.7 0.00 0.00 0.00 1020.1
20260831150530 0 141 0.0 1.7 0.00 0.00 0.00 1020.1
20260831150028 0 140 0.0 1.7 0.00 0.00 0.00 1020.1
20260831145526 0 141 0.0 1.7 0.00 0.00 0.00 1020.1
20260831145027 0 149 0.0 1.7 0.00 0.00 0.00 1020.3
20260831144522 0 122 0.0 0.9 0.00 0.00 0.00 1020.3
20260831144022 0 121 0.0 0.0 0.00 0.00 0.00 1020.1
20260831143521 0 121 0.0 0.9 0.00 0.00 0.00 1020.3
20260831143019 0 121 0.0 0.9 0.00 0.00 0.00 1020.1
20260831142517 0 119 0.0 0.9 0.00 0.00 0.00 1020.2
20260831142016 0 65 0.0 1.7 0.00 0.00 0.00 1020.1
20260831141514 0 43 0.0 1.7 0.00 0.00 0.00 1020.2
20260831141014 0 37 0.0 1.7 0.00 0.00 0.00 1020.1
20260831140511 0 43 0.0 1.7 0.00 0.00 0.00 1020.3
20260831140010 0 35 0.0 2.6 0.00 0.00 0.00 1020.3
20260831135509 0 360 0.9 2.6 0.00 0.00 0.00 1020.2
20260831135008 0 120 0.0 1.7 0.00 0.00 0.00 1020.0
20260831134516 0 140 0.0 0.0 0.00 0.00 0.00 1019.9
20260831134005 0 140 0.0 0.9 0.00 0.00 0.00 1020.0
20260831133502 0 140 0.0 1.7 0.00 0.00 0.00 1019.9
20260831133003 0 136 0.0 1.7 0.00 0.00 0.00 1020.0
20260831132100 0 132 0.0 0.9 0.00 0.00 0.00 1019.9
20260831131559 0 132 0.0 0.9 0.00 0.00 0.00 1019.9
20260831131055 0 120 0.0 0.9 0.00 0.00 0.00 1020.0
20260831130554 0 121 0.0 0.9 0.00 0.00 0.00 1020.1
20260831130054 0 121 0.0 0.9 0.00 0.00 0.00 1020.0
20260831125551 0 136 0.0 0.9 0.00 0.00 0.00 1020.0
20260831125050 0 136 0.0 0.9 0.00 0.00 0.00 1020.0
20260831124549 0 136 0.0 0.9 0.00 0.00 0.00 1020.0
20260831124052 0 136 0.0 0.9 0.00 0.00 0.00 1020.0
20260831123549 0 136 0.0 0.9 0.00 0.00 0.00 1019.9
20260831123043 0 136 0.0 1.7 0.00 0.00 0.00 1020.0
20260831122544 0 138 0.0 1.7 0.00 0.00 0.00 1020.0
20260831122041 0 136 0.0 1.7 0.00 0.00 0.00 1019.9
20260831121543 0 135 0.0 1.7 0.00 0.00 0.00 1019.9
20260831121039 0 134 0.0 0.0 0.00 0.00 0.00 1019.9
20260831120537 0 134 0.0 0.0 0.00 0.00 0.00 1019.9
20260831120040 0 134 0.0 0.0 0.00 0.00 0.00 1019.9
20260831115533 0 134 0.0 0.0 0.00 0.00 0.00 1019.9
20260831115032 0 134 0.0 0.0 0.00 0.00 0.00 1019.8
20260831114531 0 134 0.0 1.7 0.00 0.00 0.00 1019.9
20260831114029 0 134 0.0 1.7 0.00 0.00 0.00 1019.8
20260831113530 0 138 0.0 1.7 0.00 0.00 0.00 1019.8
20260831113025 0 136 0.0 1.7 0.00 0.00 0.00 1019.7
20260831112525 0 136 0.0 1.7 0.00 0.00 0.00 1019.7
20260831112023 0 134 0.0 1.7 0.00 0.00 0.00 1019.6
20260831111521 0 136 0.0 0.0 0.00 0.00 0.00 1019.5
20260831111025 0 136 0.0 0.0 0.00 0.00 0.00 1019.6
20260831110518 0 136 0.0 0.0 0.00 0.00 0.00 1019.5
20260831110016 0 136 0.0 1.7 0.00 0.00 0.00 1019.4
20260831105515 0 136 0.0 1.7 0.00 0.00 0.00 1019.5
20260831105013 0 135 0.0 1.7 0.00 0.00 0.00 1019.5
20260831104511 0 118 0.0 1.7 0.00 0.00 0.00 1019.5
20260831104012 0 109 0.0 0.9 0.00 0.00 0.00 1019.4
20260831103509 0 109 0.0 0.9 0.00 0.00 0.00 1019.5
20260831103013 0 134 0.0 0.0 0.00 0.00 0.00 1019.4
20260831102508 0 134 0.0 0.0 0.00 0.00 0.00 1019.3
20260831102005 0 134 0.0 0.0 0.00 0.00 0.00 1019.2
20260831101507 0 134 0.0 0.0 0.00 0.00 0.00 1019.2
20260831101002 0 134 0.0 0.9 0.00 0.00 0.00 1019.3
20260831100501 0 134 0.0 0.9 0.00 0.00 0.00 1019.2
20260831100100 0 132 0.0 0.9 0.00 0.00 0.00 1019.1
20260831095558 0 131 0.0 0.9 0.00 0.00 0.00 1019.1
20260831095056 0 134 0.0 1.7 0.00 0.00 0.00 1019.1
20260831094604 0 136 0.0 1.7 0.00 0.00 0.00 1019.1
20260831094053 0 136 0.0 0.9 0.00 0.00 0.00 1019.1
20260831093552 0 140 0.0 0.0 0.00 0.00 0.00 1019.2
20260831093138 0 140 0.0 0.0 0.00 0.00 0.00 1019.2
20260831092549 0 140 0.0 0.0 0.00 0.00 0.00 1019.1
20260831092047 0 140 0.0 0.0 0.00 0.00 0.00 1019.1
20260831091550 0 140 0.0 0.0 0.00 0.00 0.00 1019.0
20260831091045 0 140 0.0 0.9 0.00 0.00 0.00 1019.1
20260831090543 0 140 0.0 1.7 0.00 0.00 0.00 1019.2
20260831090043 0 140 0.9 1.7 0.00 0.00 0.00 1019.1
20260831085541 0 140 0.0 1.7 0.00 0.00 0.00 1019.1
20260831085040 0 137 0.0 1.7 0.00 0.00 0.00 1019.0
20260831084622 0 136 0.0 1.7 0.00 0.00 0.00 1019.1
20260831084036 0 137 0.0 0.0 0.00 0.00 0.00 1019.2
20260831083535 0 138 0.0 0.0 0.00 0.00 0.00 1019.1
20260831083033 0 138 0.0 0.0 0.00 0.00 0.00 1019.0
20260831082531 0 138 0.0 0.0 0.00 0.00 0.00 1019.1
20260831082034 0 138 0.0 0.0 0.00 0.00 0.00 1019.1
20260831081531 0 138 0.0 1.7 0.00 0.00 0.00 1019.1
20260831081027 0 138 0.0 1.7 0.00 0.00 0.00 1019.1
20260831080525 0 140 0.0 1.7 0.00 0.00 0.00 1019.1
20260831080125 0 140 0.0 1.7 0.00 0.00 0.00 1019.0
20260831075524 0 140 0.0 1.7 0.00 0.00 0.00 1019.1
20260831075024 0 141 0.0 1.7 0.00 0.00 0.00 1019.2
20260831074536 0 137 0.0 0.9 0.00 0.00 0.00 1019.1
20260831074021 0 137 0.0 0.0 0.00 0.00 0.00 1019.2
20260831073519 0 137 0.0 0.0 0.00 0.00 0.00 1019.2
20260831073016 0 137 0.0 0.9 0.00 0.00 0.00 1019.2
20260831072519 0 137 0.0 1.7 0.00 0.00 0.00 1019.1
20260831072014 0 137 0.0 1.7 0.00 0.00 0.00 1019.1
20260831071513 0 137 0.0 1.7 0.00 0.00 0.00 1019.2
20260831071013 0 136 0.0 0.9 0.00 0.00 0.00 1019.3
20260831070510 0 140 0.0 1.7 0.00 0.00 0.00 1019.3
20260831070010 0 130 0.0 1.7 0.00 0.00 0.00 1019.3
20260831065608 0 138 0.0 0.0 0.00 0.00 0.00 1019.2
20260831065006 0 138 0.0 0.0 0.00 0.00 0.00 1019.2
20260831064505 0 138 0.0 0.9 0.00 0.00 0.00 1019.3
20260831064001 0 138 0.0 1.7 0.00 0.00 0.00 1019.3
20260831063501 0 136 0.0 1.7 0.00 0.00 0.00 1019.2
20260831063111 0 136 0.0 1.7 0.00 0.00 0.00 1019.2
20260831062559 0 136 0.0 1.7 0.00 0.00 0.00 1019.3
20260831062058 0 136 0.9 1.7 0.00 0.00 0.00 1019.3
20260831061556 0 134 0.0 0.9 0.00 0.00 0.00 1019.3
20260831061054 0 134 0.0 0.0 0.00 0.00 0.00 1019.4
20260831060553 0 134 0.0 0.0 0.00 0.00 0.00 1019.5
20260831060051 0 134 0.0 0.0 0.00 0.00 0.00 1019.5
20260831055554 0 134 0.0 0.9 0.00 0.00 0.00 1019.6
20260831055048 0 134 0.0 1.7 0.00 0.00 0.00 1019.6
20260831054546 0 135 0.0 1.7 0.00 0.00 0.00 1019.6
20260831054045 0 135 0.0 1.7 0.00 0.00 0.00 1019.6
20260831053543 0 136 0.0 0.9 0.00 0.00 0.00 1019.7
20260831053053 0 133 0.0 1.7 0.00 0.00 0.00 1019.7
20260831052540 0 130 0.0 1.7 0.00 0.00 0.00 1019.6
20260831052042 0 127 0.0 0.0 0.00 0.00 0.00 1019.7
20260831051541 0 127 0.0 0.0 0.00 0.00 0.00 1019.7
20260831051037 0 127 0.0 0.0 0.00 0.00 0.00 1019.7
20260831050535 0 127 0.0 0.9 0.00 0.00 0.00 1019.8
20260831050034 0 127 0.0 0.9 0.00 0.00 0.00 1019.9
20260831045534 0 130 0.0 1.7 0.00 0.00 0.00 1019.9
20260831045031 0 132 0.0 1.7 0.00 0.00 0.00 1020.0
20260831044528 0 133 0.0 1.7 0.00 0.00 0.00 1020.0
20260831044028 0 129 0.9 1.7 0.00 0.00 0.00 1019.9
20260831043526 0 128 0.0 1.7 0.00 0.00 0.00 1019.9
20260831043024 0 132 0.0 0.9 0.00 0.00 0.00 1020.0
20260831042524 0 132 0.0 0.9 0.00 0.00 0.00 1020.0
20260831042022 0 135 0.0 0.9 0.00 0.00 0.00 1020.0
20260831041521 0 135 0.0 0.9 0.00 0.00 0.00 1020.0
20260831041022 0 111 0.0 0.9 0.00 0.00 0.00 1019.9
20260831040519 0 123 0.0 0.0 0.00 0.00 0.00 1019.8
20260831040022 0 123 0.0 0.9 0.00 0.00 0.00 1019.9
20260831035516 0 123 0.0 1.7 0.00 0.00 0.00 1019.9
20260831035015 0 128 0.9 1.7 0.00 0.00 0.00 1020.0
20260831034515 0 111 0.0 1.7 0.00 0.00 0.00 1020.0
20260831034014 0 126 0.9 1.7 0.00 0.00 0.00 1020.0
20260831033515 0 120 0.0 0.9 0.00 0.00 0.00 1020.1
20260831033018 0 120 0.0 1.7 0.00 0.00 0.00 1020.2
20260831032514 0 120 0.0 1.7 0.00 0.00 0.00 1020.2
20260831032015 0 114 0.0 2.6 0.00 0.00 0.00 1020.2
20260831031513 0 121 0.9 2.6 0.00 0.00 0.00 1020.0
20260831031013 0 136 0.0 1.7 0.00 0.00 0.00 1020.2
20260831030514 0 113 0.0 0.0 0.00 0.00 0.00 1020.2
20260831030013 0 113 0.0 1.7 0.00 0.00 0.00 1020.3
20260831025513 0 103 0.9 1.7 0.00 0.00 0.00 1020.3
20260831025013 0 103 0.0 1.7 0.00 0.00 0.00 1020.2
20260831024513 0 106 0.0 0.9 0.00 0.00 0.00 1020.2
20260831024012 0 111 0.0 0.9 0.00 0.00 0.00 1020.2
20260831023516 0 108 0.0 0.9 0.00 0.00 0.00 1020.3
20260831023012 0 108 0.0 0.9 0.00 0.00 0.00 1020.3
20260831022512 0 102 0.0 1.7 0.00 0.00 0.00 1020.2
20260831022012 0 116 0.0 1.7 0.00 0.00 0.00 1020.2
20260831021516 0 103 0.0 0.9 0.00 0.00 0.00 1020.2
20260831021012 0 129 0.0 0.0 0.00 0.00 0.00 1020.3